Temperature
21 18 18 19 19 20 20 20 20 20 21 20 19 19 18 19 19 19 19 19 19 19 19 19 19 19 18 18 18 18 18 18 17 17 17 17 17 17 16 16 16 16 16 16
19 19 20 21 21 21 20 20 20 20 21 20 19 19 19 19 19 19 19 19 19 19 19 19 19 19 18 18 18 18 18 18 17 17 17 17 17 16 16 16 16 16 16 16
19 20 21 21 21 20 20 20 20 20 20 20 19 18 18 18 19 19 19 19 19 19 19 19 19 19 18 18 18 18 18 18 17 17 17 17 16 16 16 16 16 16 16 16
19 21 21 21 21 21 20 21 21 20 19 18 19 17 18 18 18 18 19 19 19 19 19 19 19 19 18 18 18 18 18 17 17 17 17 17 16 16 16 16 16 16 16 15
19 21 21 20 21 21 20 21 21 20 19 18 18 18 17 18 18 18 18 19 19 19 19 19 19 19 18 18 18 18 18 17 17 17 17 17 16 16 16 16 16 15 15 15
20 21 21 21 21 22 21 20 19 18 17 17 18 18 17 17 18 18 19 19 19 19 19 19 19 19 18 18 18 18 17 17 17 17 17 16 16 16 16 16 16 15 15 15
20 20 21 21 21 21 20 17 17 17 16 17 18 18 18 19 19 19 19 19 20 19 19 19 18 18 18 18 18 17 17 17 17 17 17 16 16 16 16 16 16 15 15 15
18 18 20 21 20 19 19 18 17 17 17 17 18 18 18 20 20 21 20 20 20 19 19 19 18 18 18 18 18 17 17 17 17 17 16 16 16 16 16 16 16 15 15 15
17 18 20 21 21 20 19 18 18 17 18 17 17 18 19 20 19 19 19 19 19 19 19 19 19 18 18 18 18 17 17 17 17 17 16 16 16 16 16 16 16 16 15 15
18 18 19 21 21 20 19 18 16 17 17 17 18 18 18 19 19 18 18 19 19 19 19 19 18 18 18 18 18 17 17 17 17 17 16 16 16 16 16 16 16 16 15 15
18 18 18 19 19 19 19 19 17 16 16 16 17 17 19 19 19 18 18 19 19 19 19 19 19 18 18 18 18 17 17 17 17 16 16 16 16 16 16 16 16 16 15 15
17 16 17 18 19 20 19 19 17 16 16 16 16 17 20 19 19 19 19 19 19 19 19 19 19 18 18 18 17 17 17 17 17 16 16 16 16 16 16 16 15 16 15 15
17 16 16 17 18 19 19 19 18 16 15 15 16 17 19 18 19 19 19 19 19 19 19 19 18 18 18 18 17 17 17 17 16 16 16 16 16 16 16 15 15 15 15 15
18 15 16 16 17 17 18 19 19 17 15 16 17 18 18 18 18 18 19 19 19 19 19 18 18 18 18 18 17 17 17 17 16 16 16 16 16 16 15 15 15 15 15 15
16 16 16 17 18 18 19 19 19 18 17 16 17 17 18 18 17 18 19 19 18 18 18 18 18 18 18 18 17 17 17 17 16 16 16 16 15 15 15 15 15 15 15 15
15 16 16 17 18 18 18 18 19 18 18 17 18 17 18 18 18 18 18 18 18 18 18 18 18 18 18 18 17 17 17 17 16 16 16 15 15 15 15 15 15 15 15 15
14 15 15 15 16 17 17 18 18 18 18 18 17 17 17 17 17 18 18 18 18 18 18 18 18 18 17 17 17 17 17 16 16 16 15 15 15 15 15 14 14 14 14 14
14 14 13 14 15 16 16 18 18 18 18 18 18 17 17 18 18 19 19 18 18 18 18 18 18 18 17 17 17 17 17 16 16 15 15 15 15 15 15 14 14 14 14 14
14 14 13 13 14 15 17 18 18 18 17 17 17 17 17 17 18 18 18 18 18 18 18 18 18 18 18 17 17 17 16 16 16 15 15 15 15 15 14 14 14 14 14 14
14 13 13 13 14 14 16 17 18 17 16 16 17 16 16 16 15 15 17 17 18 18 18 18 18 17 17 17 17 16 16 16 15 15 15 15 15 15 14 14 14 14 14 14
13 13 13 13 13 14 15 17 18 16 15 16 17 16 16 16 16 17 17 17 17 18 18 18 17 17 17 17 16 16 16 16 15 15 15 15 15 15 14 14 14 14 13 13
13 12 12 12 13 14 16 16 15 15 16 17 16 16 16 16 16 16 17 17 17 17 17 17 17 17 16 16 16 16 16 16 15 15 15 14 14 14 14 14 14 13 13 13
12 13 12 12 13 15 16 16 17 17 16 16 16 16 16 16 16 16 16 16 16 16 17 17 17 16 16 16 16 16 15 15 15 15 14 14 14 14 14 14 13 13 13 13
12 13 12 12 13 14 16 16 16 16 16 16 16 16 16 16 16 16 16 16 16 16 16 16 16 16 16 15 15 15 15 15 15 14 14 14 14 13 13 13 13 13 13 12
12 12 11 12 13 14 15 15 16 16 16 16 16 16 16 16 16 15 15 15 16 16 16 16 16 16 15 15 15 15 15 14 14 14 14 13 13 13 13 13 13 12 12 12
11 12 11 12 13 13 14 15 15 15 15 15 15 15 15 16 15 15 15 15 15 15 15 15 15 15 15 15 15 14 14 14 14 14 13 13 13 13 13 12 12 12 12 12
Wind_Speed
0 3 3 6 7 5 3 2 3 3 4 4 5 5 7 8 7 8 7 8 8 9 8 8 8 8 8 6 6 6 6 6 6 4 4 3 2 2 2 3 5 7 7 7
3 3 7 5 4 3 3 1 2 2 3 4 5 5 7 8 10 10 11 10 10 8 7 7 7 7 8 7 6 7 7 6 6 4 4 3 3 2 1 2 4 6 6 6
4 5 4 4 3 3 3 5 4 3 1 1 2 2 4 5 6 7 9 9 10 12 11 10 8 8 8 8 8 8 7 7 6 6 5 4 4 3 2 2 1 2 5 6
3 4 2 2 2 4 4 5 4 3 2 3 3 3 6 6 6 8 9 9 10 11 10 10 9 9 8 8 7 7 7 6 6 7 7 6 4 3 2 1 1 1 3 5
3 2 2 3 4 4 5 5 4 3 2 1 2 3 6 3 7 10 10 11 11 11 12 12 11 10 8 7 7 7 7 6 6 7 8 7 5 3 2 1 2 2 2 3
4 3 3 3 3 2 1 2 3 3 3 3 5 4 5 5 10 10 11 11 11 11 12 11 10 8 7 6 7 7 7 5 6 6 7 7 7 5 4 3 3 2 1 1
3 3 1 2 2 2 4 4 2 3 1 5 3 4 6 8 9 11 12 11 10 10 11 11 10 9 8 8 7 7 7 5 5 6 6 7 7 7 7 5 4 3 2 1
3 4 4 3 4 3 2 6 6 4 4 4 1 4 6 5 5 7 9 9 9 10 10 11 12 11 10 9 8 7 7 6 6 6 5 5 6 5 4 5 5 5 3 3
5 5 4 4 3 6 3 3 6 5 2 2 3 3 4 3 1 3 6 8 10 10 11 11 11 10 10 10 9 9 8 6 6 6 6 5 5 5 5 5 5 4 4 4
5 3 4 2 2 1 5 5 4 3 2 2 3 2 4 4 2 3 6 8 9 9 9 10 10 10 10 9 8 8 8 7 6 6 6 5 5 5 6 6 6 5 4 4
3 3 2 0 3 4 1 2 3 3 4 4 2 5 5 8 7 7 7 8 9 10 11 10 10 10 9 8 8 8 8 7 6 6 5 5 5 5 5 5 5 5 4 5
2 4 2 5 5 5 5 5 6 4 3 3 3 6 5 5 5 6 6 7 8 9 9 9 9 9 8 8 8 8 7 7 7 6 6 6 5 5 5 5 4 4 4 4
3 4 2 4 5 2 2 3 5 5 3 4 4 6 3 1 1 4 6 7 6 7 8 7 7 8 8 8 8 8 8 7 6 6 6 6 6 6 6 5 4 4 4 4
4 3 5 7 6 4 4 5 4 5 4 5 7 6 3 2 2 2 4 6 6 7 8 8 8 7 8 8 8 8 7 7 7 7 7 7 7 7 6 5 5 5 5 5
4 3 4 6 6 4 5 6 7 7 7 7 7 7 7 6 5 4 4 5 6 6 7 9 9 8 8 7 7 7 7 6 7 7 7 7 6 6 6 6 5 5 5 5
2 2 1 3 4 4 5 7 7 7 6 6 5 6 6 5 4 4 5 6 6 6 8 8 8 8 8 8 8 8 7 7 7 8 8 7 7 6 6 6 5 5 5 4
1 3 1 3 5 3 6 7 7 6 6 7 8 8 4 3 5 7 6 6 7 7 7 8 9 9 9 9 9 9 8 7 7 7 7 7 7 7 7 6 6 5 5 4
5 3 2 2 1 5 7 4 3 4 4 4 5 5 6 6 6 5 5 6 6 6 6 7 7 7 7 7 7 7 7 7 8 7 7 7 8 7 6 6 6 5 4 4
7 6 3 3 3 6 6 4 2 4 3 2 3 3 2 1 1 1 1 4 6 6 5 6 7 7 7 7 8 8 8 8 8 8 8 8 8 8 8 7 6 5 5 4
4 5 4 3 4 6 6 5 3 3 3 3 2 3 2 2 2 4 3 2 3 3 3 4 5 5 6 6 7 9 8 8 9 9 9 8 8 9 9 8 6 4 5 5
2 2 4 5 5 7 6 5 2 3 5 3 3 4 4 4 5 5 3 1 2 2 3 4 5 5 6 6 8 9 8 9 9 8 8 8 8 8 8 7 6 6 6 5
4 4 4 4 5 7 4 1 3 5 3 2 2 3 3 2 1 2 2 2 2 2 2 4 5 5 5 6 7 8 8 7 6 6 7 8 8 7 6 7 6 6 7 6
5 6 5 6 6 4 2 3 3 2 2 2 2 2 3 2 2 2 2 3 2 2 2 3 5 5 4 5 7 7 6 5 6 6 6 7 7 6 7 7 7 6 6 5
3 1 2 2 4 4 3 2 2 1 1 2 2 2 3 3 4 3 3 3 3 3 2 3 5 5 5 5 5 6 5 6 6 6 5 5 6 5 5 6 6 6 7 6
5 1 1 3 5 4 4 3 3 3 2 2 1 1 3 3 3 4 4 4 4 3 2 2 5 6 6 5 4 4 5 6 6 5 4 5 5 6 5 5 5 7 7 9
4 5 4 6 6 4 7 7 4 3 3 3 2 3 3 3 4 3 3 3 3 3 2 2 4 5 6 5 5 4 5 6 6 5 4 5 4 4 4 4 3 4 5 8
Wind_Direction
181 101 193 210 203 204 183 187 207 228 208 171 191 208 207 202 190 188 187 189 187 190 191 178 169 158 152 151 149 141 136 135 128 117 111 103 92 76 66 68 79 82 85 90
34 252 232 212 206 209 189 179 239 254 213 183 200 228 217 201 196 191 190 192 190 185 178 177 171 163 162 166 165 153 151 151 149 141 138 137 132 118 113 71 70 80 89 93
196 243 228 198 193 191 209 186 208 212 251 249 148 283 251 229 212 202 197 192 189 186 182 180 175 172 168 170 170 166 165 160 155 142 118 98 77 60 52 48 47 57 94 98
237 245 214 189 212 176 221 217 195 181 160 246 182 238 262 224 214 208 203 194 193 192 182 178 176 176 177 179 171 162 166 158 156 146 139 138 139 149 182 181 162 74 88 100
249 230 176 209 236 196 215 215 199 196 170 262 233 196 270 212 218 220 210 201 196 192 183 180 178 180 177 170 162 163 162 159 161 156 152 147 151 165 162 141 123 98 61 90
248 252 181 205 239 192 151 44 25 46 83 271 230 190 265 217 214 212 208 204 198 190 186 182 177 170 166 162 155 154 157 166 167 160 157 157 161 161 153 151 144 133 98 71
295 288 241 150 50 10 79 88 36 354 338 256 222 179 244 233 214 200 198 199 195 182 176 172 167 166 164 162 161 159 159 162 166 159 164 169 170 169 172 172 168 158 148 142
187 257 234 194 176 193 188 149 164 198 226 272 284 219 255 254 211 196 191 186 179 174 174 175 176 174 171 167 164 163 167 169 167 163 168 171 171 175 177 177 172 172 173 175
181 239 254 215 188 160 176 204 184 164 234 260 275 282 320 14 81 171 172 171 177 178 176 176 176 174 172 171 173 173 168 165 169 171 168 169 174 173 175 174 169 168 171 168
163 217 259 239 84 183 178 173 108 126 181 259 289 259 237 238 221 184 170 177 184 179 176 177 176 177 176 176 176 171 169 170 170 168 172 172 169 166 166 165 168 172 172 159
147 177 272 127 184 207 188 155 136 145 166 169 244 268 232 209 204 190 188 180 184 181 179 179 179 179 175 171 171 172 174 169 168 172 170 160 162 159 156 160 169 169 165 162
129 134 212 248 252 205 184 183 152 160 228 181 192 263 278 203 190 180 186 181 183 181 178 177 176 172 172 172 175 177 178 177 177 173 164 163 159 153 154 160 164 155 151 160
124 111 97 329 326 314 229 203 170 154 152 184 200 262 311 8 193 182 176 175 179 175 169 167 167 172 177 179 179 178 183 183 176 167 160 158 157 156 160 162 153 143 139 139
115 125 171 200 223 229 239 241 200 156 180 213 221 238 283 273 248 221 181 174 176 175 173 170 172 179 182 183 183 182 186 181 173 166 162 164 169 169 167 158 149 148 144 143
103 165 215 237 251 241 246 244 223 206 199 204 226 223 235 231 220 208 191 174 167 171 173 177 180 182 183 185 189 187 184 178 171 167 169 175 172 166 157 149 152 152 150 150
96 162 225 290 282 281 269 258 234 223 213 212 217 245 237 216 193 192 189 174 169 177 183 184 183 182 186 189 191 189 183 178 169 172 177 173 164 162 160 159 156 149 150 143
145 135 126 272 297 330 272 247 225 219 214 196 215 235 211 189 193 194 189 183 180 186 188 185 188 190 193 192 189 187 185 173 168 173 174 170 166 165 167 165 156 157 163 154
164 147 158 224 354 242 247 260 212 202 224 215 205 207 189 198 209 196 177 179 188 190 193 192 191 192 193 189 184 179 171 166 171 175 176 172 168 167 164 161 165 169 165 160
169 154 156 169 220 269 287 283 215 192 245 264 193 197 193 162 75 295 219 183 187 187 187 193 191 188 182 180 178 168 171 173 176 182 184 182 176 171 169 171 176 175 161 161
134 134 149 171 199 233 249 279 256 146 236 285 174 177 177 104 151 247 273 239 193 176 170 174 174 170 173 183 171 166 175 177 186 191 189 184 179 177 179 182 180 176 169 172
122 147 181 197 221 254 262 284 65 156 240 270 186 182 175 190 212 229 232 222 178 172 171 167 160 165 181 180 168 172 180 192 196 188 182 181 184 183 183 179 174 167 167 163
184 184 196 178 207 246 291 75 160 227 249 220 193 204 208 234 246 204 191 189 165 144 162 157 157 172 178 169 166 172 190 195 180 172 178 181 183 185 182 171 172 167 161 161
196 192 192 197 215 246 250 189 221 204 213 228 207 223 190 205 221 199 198 197 192 183 172 167 163 168 172 171 169 177 192 173 161 163 178 183 181 181 174 172 173 171 169 172
278 192 168 237 261 272 279 295 327 340 246 238 210 210 196 218 208 202 198 198 201 202 182 170 159 164 180 183 179 181 174 162 158 166 174 176 174 175 172 177 177 179 182 183
245 234 202 253 273 306 309 309 307 323 322 286 290 252 223 211 214 207 208 212 213 214 198 174 172 177 185 183 181 170 162 157 159 166 169 176 179 179 177 183 191 194 199 194
227 202 199 236 243 237 267 274 275 273 280 271 285 295 276 225 211 218 217 218 208 202 194 186 180 179 182 177 177 172 166 164 164 171 175 177 177 180 179 179 192 211 204 203
Height
1518 1524 1528 1525 1523 1524 1526 1529 1531 1528 1523 1526 1529 1530 1528 1527 1528 1529 1530 1532 1533 1535 1537 1539 1540 1542 1544 1546 1547 1548 1550 1551 1552 1553 1553 1554 1554 1554 1555 1555 1555 1555 1555 1555
1523 1525 1519 1517 1519 1521 1524 1530 1530 1526 1522 1525 1529 1529 1525 1524 1525 1526 1527 1529 1530 1533 1535 1537 1539 1541 1543 1544 1546 1548 1549 1550 1551 1552 1553 1554 1554 1555 1555 1555 1555 1555 1556 1556
1524 1520 1515 1516 1519 1522 1524 1528 1528 1528 1524 1524 1528 1533 1528 1524 1523 1525 1525 1526 1528 1530 1532 1535 1537 1539 1541 1543 1545 1546 1548 1549 1551 1552 1553 1553 1554 1554 1555 1555 1555 1556 1556 1556
1520 1515 1515 1517 1518 1520 1527 1520 1520 1523 1531 1537 1532 1545 1531 1524 1523 1523 1523 1524 1526 1528 1530 1532 1535 1537 1539 1541 1543 1545 1547 1548 1550 1551 1551 1552 1553 1554 1554 1555 1555 1556 1556 1556
1519 1515 1516 1518 1517 1516 1519 1515 1518 1521 1528 1535 1533 1540 1535 1524 1525 1521 1520 1521 1522 1525 1527 1530 1532 1535 1537 1539 1541 1543 1545 1547 1548 1549 1550 1551 1552 1553 1554 1555 1555 1556 1556 1557
1515 1513 1513 1514 1512 1513 1514 1518 1521 1526 1533 1544 1533 1538 1536 1525 1518 1515 1515 1517 1519 1522 1525 1527 1530 1533 1536 1538 1540 1542 1544 1545 1547 1548 1549 1550 1551 1552 1553 1554 1555 1555 1556 1556
1519 1515 1512 1512 1515 1515 1518 1531 1545 1546 1550 1544 1528 1532 1529 1512 1508 1508 1510 1513 1515 1519 1522 1525 1528 1531 1533 1536 1538 1540 1542 1543 1545 1547 1548 1549 1550 1551 1552 1553 1554 1554 1555 1556
1528 1527 1514 1511 1515 1519 1520 1528 1546 1553 1551 1543 1529 1531 1520 1505 1504 1504 1507 1510 1513 1516 1519 1522 1525 1528 1531 1533 1536 1538 1540 1542 1543 1545 1546 1548 1549 1550 1551 1552 1553 1553 1554 1555
1526 1525 1510 1508 1509 1513 1520 1525 1525 1536 1537 1541 1535 1523 1513 1505 1504 1504 1506 1509 1511 1514 1517 1520 1523 1526 1529 1531 1534 1536 1538 1540 1542 1543 1545 1547 1548 1549 1550 1551 1552 1552 1553 1554
1515 1522 1513 1508 1508 1510 1513 1518 1529 1535 1544 1547 1537 1529 1525 1512 1509 1506 1506 1507 1509 1512 1515 1518 1521 1524 1527 1529 1532 1534 1536 1538 1540 1542 1543 1545 1546 1547 1548 1550 1551 1551 1552 1553
1511 1520 1518 1513 1514 1516 1516 1519 1523 1532 1535 1544 1545 1535 1509 1507 1505 1505 1505 1506 1508 1510 1513 1515 1519 1522 1525 1528 1530 1533 1535 1537 1538 1540 1542 1543 1544 1546 1547 1548 1549 1550 1551 1552
1511 1519 1524 1516 1508 1506 1509 1513 1521 1534 1535 1535 1539 1531 1502 1502 1502 1503 1504 1505 1507 1509 1512 1514 1517 1520 1523 1525 1528 1531 1533 1535 1537 1538 1540 1541 1543 1544 1545 1546 1548 1549 1550 1551
1510 1520 1529 1527 1521 1512 1510 1510 1513 1521 1529 1534 1537 1527 1502 1502 1502 1502 1503 1504 1506 1508 1511 1513 1516 1518 1520 1523 1525 1528 1530 1532 1535 1536 1538 1539 1540 1542 1543 1545 1546 1547 1548 1550
1506 1517 1525 1529 1523 1515 1513 1509 1509 1517 1529 1529 1524 1517 1508 1506 1504 1503 1503 1504 1506 1507 1509 1511 1514 1516 1518 1521 1523 1525 1528 1530 1532 1534 1535 1537 1538 1540 1541 1543 1544 1546 1547 1548
1506 1516 1514 1513 1509 1508 1508 1507 1507 1511 1515 1520 1515 1512 1507 1504 1503 1503 1503 1503 1505 1506 1508 1509 1511 1513 1516 1518 1521 1523 1525 1527 1529 1531 1533 1535 1536 1538 1540 1541 1542 1544 1546 1547
1508 1513 1513 1512 1507 1506 1507 1504 1503 1504 1505 1508 1508 1507 1500 1500 1501 1501 1502 1502 1503 1504 1506 1507 1509 1511 1513 1515 1518 1520 1522 1524 1527 1528 1530 1532 1534 1536 1537 1539 1541 1542 1544 1545
1510 1513 1517 1520 1511 1508 1512 1502 1500 1500 1499 1501 1505 1502 1499 1500 1500 1499 1499 1500 1500 1502 1504 1505 1507 1509 1511 1512 1514 1517 1519 1522 1524 1526 1528 1530 1532 1533 1535 1537 1539 1541 1542 1544
1508 1513 1519 1520 1517 1522 1507 1494 1494 1496 1495 1495 1495 1495 1495 1496 1496 1497 1497 1498 1499 1500 1502 1503 1505 1507 1509 1510 1512 1515 1517 1519 1521 1523 1525 1527 1529 1531 1533 1535 1536 1538 1540 1541
1501 1509 1518 1522 1522 1514 1501 1493 1493 1496 1497 1494 1494 1494 1495 1495 1495 1496 1496 1497 1497 1498 1499 1501 1502 1504 1506 1508 1510 1512 1514 1516 1518 1520 1522 1524 1526 1528 1530 1532 1534 1536 1538 1539
1500 1504 1515 1520 1520 1518 1502 1491 1489 1492 1499 1494 1492 1493 1494 1494 1499 1497 1495 1495 1496 1496 1497 1499 1500 1502 1504 1505 1508 1510 1511 1513 1515 1517 1519 1522 1524 1526 1527 1529 1531 1533 1535 1537
1506 1509 1513 1516 1516 1508 1495 1490 1489 1502 1500 1493 1491 1491 1492 1493 1494 1494 1494 1494 1494 1494 1495 1496 1498 1499 1501 1503 1505 1506 1508 1510 1512 1515 1517 1519 1521 1522 1524 1526 1528 1530 1532 1534
1505 1509 1511 1513 1515 1508 1491 1489 1494 1495 1491 1490 1490 1490 1490 1490 1490 1491 1491 1491 1491 1492 1493 1494 1495 1497 1499 1500 1502 1503 1505 1507 1510 1512 1513 1515 1517 1519 1521 1523 1525 1527 1528 1530
1500 1500 1501 1502 1501 1492 1489 1489 1489 1489 1489 1488 1488 1488 1488 1489 1488 1488 1488 1489 1489 1490 1491 1492 1493 1494 1496 1498 1499 1501 1502 1505 1507 1509 1510 1512 1514 1516 1518 1519 1521 1523 1524 1526
1495 1493 1495 1496 1491 1489 1488 1487 1487 1487 1487 1486 1486 1486 1486 1486 1486 1486 1486 1487 1487 1488 1488 1489 1491 1492 1493 1495 1497 1499 1500 1502 1504 1505 1507 1508 1510 1512 1514 1515 1517 1519 1520 1522
1494 1492 1493 1493 1489 1487 1485 1486 1486 1485 1484 1484 1484 1484 1484 1484 1483 1484 1484 1484 1485 1485 1486 1487 1488 1489 1490 1492 1494 1496 1498 1500 1501 1502 1504 1505 1506 1508 1510 1511 1513 1514 1516 1518
1489 1489 1491 1490 1487 1487 1484 1484 1484 1483 1482 1482 1481 1481 1481 1482 1481 1481 1481 1482 1482 1483 1483 1484 1486 1487 1488 1490 1492 1494 1495 1497 1498 1499 1500 1501 1502 1504 1506 1507 1509 1511 1513 1514